This is the latest recevied weather packets stored in our database for station/object WL7CLI. If no packets are shown the sender has not sent any weather packets the latest 10 day(s).
| Time | Temp. | Humidity | Pressure | Rain* | Wind** | Luminosity | Snow |
|---|---|---|---|---|---|---|---|
| 1777906698 | 20° C | 51% | 1000.6 hPa | 0 mm | - | - | - |
| 1777906574 | 20° C | 51% | 1000.6 hPa | 0 mm | - | - | - |
| 1777905500 | 18.89° C | 54% | 1000.8 hPa | 0 mm | - | - | - |
| 1777905374 | 18.89° C | 54% | 1000.8 hPa | 0 mm | - | - | - |
| 1777904904 | 18.33° C | 53% | 1001.5 hPa | 0 mm | - | - | - |
| 1777904299 | 17.78° C | 56% | 1000.9 hPa | 0 mm | - | - | - |
| 1777904175 | 17.22° C | 55% | 1001.1 hPa | 0 mm | - | - | - |
| 1777903104 | 16.67° C | 55% | 1001.6 hPa | 0 mm | - | - | - |
| 1777903099 | 16.67° C | 55% | 1001 hPa | 0 mm | - | - | - |
| 1777902974 | 16.67° C | 54% | 1001 hPa | 0 mm | - | - | - |
| 1777901899 | 16.11° C | 56% | 1001.3 hPa | 0 mm | - | - | - |
| 1777901775 | 16.11° C | 57% | 1001.3 hPa | 0 mm | - | - | - |
| 1777901304 | 15.56° C | 58% | 1001.9 hPa | 0 mm | - | - | - |
| 1777900699 | 14.44° C | 59% | 1001.4 hPa | 0 mm | - | - | - |
| 1777900574 | 14.44° C | 60% | 1001.4 hPa | 0 mm | - | - | - |
| 1777899504 | 13.89° C | 61% | 1001.9 hPa | 0 mm | - | - | - |
| 1777899499 | 13.89° C | 61% | 1001.5 hPa | 0 mm | - | - | - |
| 1777899372 | 13.89° C | 61% | 1001.5 hPa | 0 mm | - | - | - |
| 1777898299 | 12.78° C | 62% | 1001.5 hPa | 0 mm | - | - | - |
| 1777898172 | 12.78° C | 62% | 1001.4 hPa | 0 mm | - | - | - |
| 1777897704 | 12.22° C | 63% | 1002 hPa | 0 mm | - | - | - |
| 1777897098 | 11.67° C | 66% | 1001.6 hPa | 0 mm | - | - | - |
| 1777896971 | 11.67° C | 65% | 1001.6 hPa | 0 mm | - | - | - |
| 1777895904 | 10.56° C | 68% | 1002 hPa | 0 mm | - | - | - |
| 1777895899 | 10.56° C | 67% | 1001.6 hPa | 0 mm | - | - | - |
* Rain latest hour (hover to see other rain measurements)
** Current wind speed in m/s (hover to see current wind gust speed)